Regional Weather Roundup
Issued by NWS

Home | Current Version | Previous Version | Text Only | Print | Product List | Glossary On
Versions: 1 2 3 4 5 6 7 8 9 10 11 12 13 14 15 16 17 18 19 20 21 22 23 24 25 26 27 28 29 30 31 32 33 34 35 36 37 38 39 40 41 42 43 44 45 46 47 48 49 50
000
ASUS44 KLIX 261513
RWRLA
LOUISIANA WEATHER ROUNDUP
NATIONAL WEATHER SERVICE NEW ORLEANS LA
1000 AM CDT SUN MAR 26 2017

NOTE: "FAIR" INDICATES FEW OR NO CLOUDS BELOW 12,000 FEET WITH NO
      SIGNIFICANT WEATHER AND/OR OBSTRUCTIONS TO VISIBILITY.
      SKY/WX - SKY CONDITION AND SIGNIFICANT WEATHER.
      TMP - AIR TEMPERATURE.    DP   - DEWPOINT TEMPERATURE.
      RH  - RELATIVE HUMIDITY.  PRES - PRESSURE.
      HX  - HEAT INDEX.         WCI  - WIND CHILL INDEX.

*  THESE STATIONS ARE NOT NWS OR FAA STATIONS AND ARE NOT UNDER
   NWS QUALITY CONTROL.

LAZ040-048-061>063-065-066-069-261600-
SOUTHEAST LOUISIANA

CITY           SKY/WX    TMP DP  RH WIND       PRES   REMARKS
N.O. INTL ARPT PTSUNNY   74  69  85 S7        30.05R
N.O. LAKEFRONT CLOUDY    74  70  87 SW3       30.05R
N.O. DOWNTOWN*   N/A     74  69  85 SE3       30.06R
RESERVE*       CLOUDY    73  71  92 CALM      30.04S
SLIDELL        CLOUDY    74  69  85 S9        30.05R
BATON ROUGE    CLOUDY    71  67  87 CALM      30.03R FOG
BOOTHVILLE     MOSUNNY   73  70  90 VRB7      30.07R
BELLE CHASSE   PTSUNNY   73  71  93 SW7       30.05R
BOGALUSA*      NOT AVBL
GALLIANO*      CLOUDY    74  67  79 SW5       30.05R
NEW ROADS*       N/A     67  67 100 SE6       30.03R
GONZALES*      PTSUNNY   74  68  83 S6        30.03R HAZE
HAMMOND*       CLOUDY    72  66  83 CALM      30.04R HAZE
HOUMA*         PTSUNNY   75  70  83 S6        30.04R
PORT FOURCHON* PTSUNNY   75  70  83 VRB6G13   30.05R

$$

LAZ041-044-053-054-261600-
SOUTHWEST LOUISIANA

CITY           SKY/WX    TMP DP  RH WIND       PRES   REMARKS
LAKE CHARLES   PTSUNNY   72  69  90 S5        30.00R
LAFAYETTE      CLOUDY    71  70  96 CALM      30.02R FOG
PATTERSON      CLOUDY    73  70  90 S6        30.04R
SALT POINT       N/A     73  70  90 VRB3      30.02R
NEW IBERIA     PTSUNNY   73  68  84 S7        30.03R
CHENAULT AIRPK NOT AVBL

$$

LAZ027-028-261600-
CENTRAL LOUISIANA

CITY           SKY/WX    TMP DP  RH WIND       PRES   REMARKS
FORT POLK      CLOUDY    65  56  72 SE7       29.99S
ALEXANDRIA INT CLOUDY    67  66  97 S6        29.99R FOG
ALEXANDRIA     PTSUNNY   70  67  90 S9        30.00R

$$

LAZ001-002-261600-
NORTHWEST LOUISIANA

CITY           SKY/WX    TMP DP  RH WIND       PRES   REMARKS
SHREVEPORT     MOSUNNY   69  53  56 SE7       29.98R
BARKSDALE AFB  SUNNY     66  55  69 S8        29.98R
DTN SHREVEPORT SUNNY     67  54  63 SE8       29.98R

$$

LAZ014-016-261600-
NORTHEAST LOUISIANA

CITY           SKY/WX    TMP DP  RH WIND       PRES   REMARKS
MONROE         SUNNY     63  56  78 CALM      30.01R
TALLULAH       CLOUDY    68  64  87 VRB3      30.01S

$$




USA.gov is the U.S. government's official web portal to all federal, state and local government web resources and services.